User: anonymous   Login
Location: Unspecified
(0.0000°N, 0.0000°E)
Time: 21:05:50
(UTC+00:00)
Language:

KOMPSAT 3A - Orbit

View from above orbital plane
View from above orbital plane
View from above satellite
View from above satellite

Ground track
Ground track

The orbit is defined by the following mean orbital elements,

1 40536U          26145.63221235 +.00000000 +00000-0 +34468-3 0 00001
2 40536  97.6887 135.3647 0054961 258.2876 101.2206 15.52864289    09
Epoch (UTC): 25 May 2026 15:10:23
Eccentricity: 0.0054961
inclination: 97.6887°
perigee height: 371 km
apogee height: 446 km
right ascension of ascending node: 135.3647°
argument of perigee: 258.2876°
revolutions per day: 15.52864289
mean anomaly at epoch: 101.2206°

The dashed part of the orbit path shows where the satellite is in the earth's shadow,  

DLR